Bhavnagar Airport
VABV : now visible

Airfield :











YOU CAN JOIN US ON...

 
LOGIN :

Register | Disclaimer

   EN    FR    IT 

 









Legend :    VFR   Marginal VFR   IFR   Intensive IFR   Very Intensive IFR
Visi :
Ceiling :
>= 8 km
>= 3000ft
5 to 8 km
1000 to 3000 ft
1500m to 5 km
500 to 1000 ft
800 to 1500m
200 to 500 ft
< 800m
< 200 ft
Symbols :   Thunderstorms  Fog  Heavy snow  Heavy precipitations  Wind > 20 kt







- Airport Elevation : 44 ft
- IATA code : BHU


VABV - Bhavnagar

CURRENT METAR :
  • 160400Z 23009KT 4000 HZ FEW020 BKN080 31/24 Q1005

EXPIRED METARs :
  • 160300Z 21009KT 3000 HZ FEW020 BKN080 30/25 Q1004
  • 160230Z 21010KT 3000 HZ FEW020 BKN080 30/25 Q1004

TAF TAF VABV
Valid from the 16 at 03:00 until the 16 at 12:00 UTC


160200Z 1603/1612 23010KT 4000 HZ SCT020
BECMG 1604/1606 24012KT 6000 SCT020 SCT025
VABF FIR / Asia



MET'MAP, your aeronautical weather chart ! - Copyright ORBIFLY December 2007 - Disclaimer

ORBIFLY MET'MAP TEAM :

Programming & Development : Alexandra Zaïnal
Concept & Development : Baudouin d'Aumeries
Co-Development & Prog : Marc-Olivier Méhu
Technical & hardware support : Manuel Goepfert

Contact : metmap@orbifly.com




SOURCES & CREDITS :

   NOAA       Earth
Advisory